Wolke Sonne

Wetter Roßtal

Gehe zu: Ammerndorf

Tageswerte vom Donnerstag, 10.03.2022

Optionen

Tag:
Erweitert:

Alle Werte vom Donnerstag, 10.03.2022

Einen Moment bitte, die Daten werden aufbereitet...

UhrzeitTemperaturFeuchteLuftdruckNiederschlagEvapotranspirationNiederschlag?WindWindböenRegenrateWindrichtungHelligkeitSolarstrahlungUV-IndexSonne?Feinstaub 10µmFeinstaub 2,5µmUhrzeit
Diagramm IconDiagramm IconDiagramm IconDiagramm IconDiagramm IconDiagramm IconDiagramm IconDiagramm IconDiagramm IconDiagramm IconDiagramm IconDiagramm IconDiagramm IconDiagramm IconDiagramm IconDiagramm Icon
00:00-1,1 °C 69 % 1029,2 hPa 0,0 mm 0,0 mm nein 0,0 km/h 0,0 km/h 0,0 mm/h N 0,000 klux 0,0 W/qm 0,0 nein 13,17 µg/m³ 8,09 µg/m³ 00:00
00:05-1,1 °C 69 % 1029,2 hPa 0,0 mm 0,0 mm nein 0,0 km/h 0,0 km/h 0,0 mm/h N 0,000 klux 0,0 W/qm 0,0 nein 10,82 µg/m³ 8,17 µg/m³ 00:05
00:10-1,1 °C 69 % 1029,3 hPa 0,0 mm 0,0 mm nein 0,0 km/h 0,0 km/h 0,0 mm/h N 0,000 klux 0,0 W/qm 0,0 nein 9,85 µg/m³ 7,93 µg/m³ 00:10
00:15-1,1 °C 69 % 1029,3 hPa 0,0 mm 0,0 mm nein 0,0 km/h 0,0 km/h 0,0 mm/h N 0,000 klux 0,0 W/qm 0,0 nein 10,51 µg/m³ 7,98 µg/m³ 00:15
00:20-1,1 °C 69 % 1029,3 hPa 0,0 mm 0,0 mm nein 0,0 km/h 0,0 km/h 0,0 mm/h N 0,000 klux 0,0 W/qm 0,0 nein 11,49 µg/m³ 8,14 µg/m³ 00:20
00:25-1,1 °C 69 % 1029,3 hPa 0,0 mm 0,0 mm nein 0,0 km/h 0,0 km/h 0,0 mm/h N 0,000 klux 0,0 W/qm 0,0 nein 10,77 µg/m³ 7,98 µg/m³ 00:25
00:30-1,7 °C 70 % 1029,4 hPa 0,0 mm 0,0 mm nein 0,0 km/h 0,0 km/h 0,0 mm/h N 0,000 klux 0,0 W/qm 0,0 nein 13,19 µg/m³ 9,48 µg/m³ 00:30
00:35-1,7 °C 70 % 1029,4 hPa 0,0 mm 0,0 mm nein 0,0 km/h 0,0 km/h 0,0 mm/h N 0,000 klux 0,0 W/qm 0,0 nein 11,20 µg/m³ 7,76 µg/m³ 00:35
00:40-1,7 °C 70 % 1029,5 hPa 0,0 mm 0,0 mm nein 0,0 km/h 0,0 km/h 0,0 mm/h N 0,000 klux 0,0 W/qm 0,0 nein 9,86 µg/m³ 6,92 µg/m³ 00:40
00:45-1,7 °C 70 % 1029,5 hPa 0,0 mm 0,0 mm nein 0,0 km/h 0,0 km/h 0,0 mm/h N 0,000 klux 0,0 W/qm 0,0 nein 9,44 µg/m³ 7,46 µg/m³ 00:45
00:50-1,7 °C 70 % 1029,5 hPa 0,0 mm 0,0 mm nein 0,0 km/h 0,0 km/h 0,0 mm/h N 0,000 klux 0,0 W/qm 0,0 nein 10,83 µg/m³ 7,70 µg/m³ 00:50
00:55-1,7 °C 70 % 1029,5 hPa 0,0 mm 0,0 mm nein 0,0 km/h 0,0 km/h 0,0 mm/h N 0,000 klux 0,0 W/qm 0,0 nein 9,60 µg/m³ 7,67 µg/m³ 00:55
01:00-1,7 °C 70 % 1029,5 hPa 0,0 mm 0,0 mm nein 0,0 km/h 0,0 km/h 0,0 mm/h N 0,000 klux 0,0 W/qm 0,0 nein 14,12 µg/m³ 9,81 µg/m³ 01:00
01:05-1,7 °C 70 % 1029,6 hPa 0,0 mm 0,0 mm nein 0,0 km/h 0,0 km/h 0,0 mm/h N 0,000 klux 0,0 W/qm 0,0 nein 30,64 µg/m³ 15,12 µg/m³ 01:05
01:10-1,7 °C 71 % 1029,6 hPa 0,0 mm 0,0 mm nein 0,0 km/h 1,6 km/h 0,0 mm/h SO 0,000 klux 0,0 W/qm 0,0 nein 17,36 µg/m³ 11,64 µg/m³ 01:10
01:15-1,7 °C 71 % 1029,5 hPa 0,0 mm 0,0 mm nein 1,6 km/h 3,2 km/h 0,0 mm/h SO 0,000 klux 0,0 W/qm 0,0 nein 17,01 µg/m³ 11,43 µg/m³ 01:15
01:20-2,2 °C 72 % 1029,6 hPa 0,0 mm 0,0 mm nein 1,6 km/h 3,2 km/h 0,0 mm/h SO 0,000 klux 0,0 W/qm 0,0 nein 16,67 µg/m³ 10,42 µg/m³ 01:20
01:25-2,2 °C 72 % 1029,6 hPa 0,0 mm 0,0 mm nein 3,2 km/h 4,8 km/h 0,0 mm/h SO 0,000 klux 0,0 W/qm 0,0 nein 13,50 µg/m³ 9,83 µg/m³ 01:25
01:30-2,2 °C 72 % 1029,6 hPa 0,0 mm 0,0 mm nein 3,2 km/h 4,8 km/h 0,0 mm/h SO 0,000 klux 0,0 W/qm 0,0 nein 14,83 µg/m³ 10,01 µg/m³ 01:30
01:35-2,2 °C 72 % 1029,6 hPa 0,0 mm 0,0 mm nein 3,2 km/h 4,8 km/h 0,0 mm/h SO 0,000 klux 0,0 W/qm 0,0 nein 13,33 µg/m³ 9,45 µg/m³ 01:35
01:40-2,2 °C 73 % 1029,5 hPa 0,0 mm 0,0 mm nein 3,2 km/h 4,8 km/h 0,0 mm/h SO 0,000 klux 0,0 W/qm 0,0 nein 8,66 µg/m³ 6,18 µg/m³ 01:40
01:45-2,2 °C 73 % 1029,5 hPa 0,0 mm 0,0 mm nein 3,2 km/h 4,8 km/h 0,0 mm/h SO 0,000 klux 0,0 W/qm 0,0 nein 8,40 µg/m³ 5,54 µg/m³ 01:45
01:50-2,2 °C 73 % 1029,5 hPa 0,0 mm 0,0 mm nein 3,2 km/h 4,8 km/h 0,0 mm/h SO 0,000 klux 0,0 W/qm 0,0 nein 7,99 µg/m³ 6,03 µg/m³ 01:50
01:55-2,2 °C 73 % 1029,5 hPa 0,0 mm 0,0 mm nein 1,6 km/h 3,2 km/h 0,0 mm/h SO 0,000 klux 0,0 W/qm 0,0 nein 7,67 µg/m³ 5,73 µg/m³ 01:55
UhrzeitTemperaturFeuchteLuftdruckNiederschlagEvapotranspirationNiederschlag?WindWindböenRegenrateWindrichtungHelligkeitSolarstrahlungUV-IndexSonne?Feinstaub 10µmFeinstaub 2,5µmUhrzeit
02:00-2,2 °C 73 % 1029,5 hPa 0,0 mm 0,0 mm nein 0,0 km/h 1,6 km/h 0,0 mm/h SO 0,000 klux 0,0 W/qm 0,0 nein 10,04 µg/m³ 6,15 µg/m³ 02:00
02:05-2,2 °C 73 % 1029,5 hPa 0,0 mm 0,0 mm nein 0,0 km/h 1,6 km/h 0,0 mm/h SO 0,000 klux 0,0 W/qm 0,0 nein 8,36 µg/m³ 6,06 µg/m³ 02:05
02:10-2,2 °C 73 % 1029,5 hPa 0,0 mm 0,0 mm nein 1,6 km/h 3,2 km/h 0,0 mm/h SO 0,000 klux 0,0 W/qm 0,0 nein 8,20 µg/m³ 6,35 µg/m³ 02:10
02:15-2,2 °C 73 % 1029,4 hPa 0,0 mm 0,0 mm nein 1,6 km/h 3,2 km/h 0,0 mm/h SO 0,000 klux 0,0 W/qm 0,0 nein 9,25 µg/m³ 6,36 µg/m³ 02:15
02:20-2,2 °C 73 % 1029,4 hPa 0,0 mm 0,0 mm nein 0,0 km/h 1,6 km/h 0,0 mm/h SO 0,000 klux 0,0 W/qm 0,0 nein 9,71 µg/m³ 6,74 µg/m³ 02:20
02:25-2,2 °C 73 % 1029,4 hPa 0,0 mm 0,0 mm nein 0,0 km/h 1,6 km/h 0,0 mm/h SO 0,000 klux 0,0 W/qm 0,0 nein 10,91 µg/m³ 7,70 µg/m³ 02:25
02:30-2,2 °C 74 % 1029,5 hPa 0,0 mm 0,0 mm nein 0,0 km/h 3,2 km/h 0,0 mm/h SO 0,000 klux 0,0 W/qm 0,0 nein 9,42 µg/m³ 6,70 µg/m³ 02:30
02:35-2,8 °C 74 % 1029,6 hPa 0,0 mm 0,0 mm nein 0,0 km/h 0,0 km/h 0,0 mm/h N 0,000 klux 0,0 W/qm 0,0 nein 8,29 µg/m³ 6,21 µg/m³ 02:35
02:40-2,8 °C 74 % 1029,6 hPa 0,0 mm 0,0 mm nein 0,0 km/h 0,0 km/h 0,0 mm/h N 0,000 klux 0,0 W/qm 0,0 nein 8,11 µg/m³ 6,47 µg/m³ 02:40
02:45-2,8 °C 74 % 1029,5 hPa 0,0 mm 0,0 mm nein 0,0 km/h 0,0 km/h 0,0 mm/h N 0,000 klux 0,0 W/qm 0,0 nein 9,89 µg/m³ 7,04 µg/m³ 02:45
02:50-2,8 °C 73 % 1029,5 hPa 0,0 mm 0,0 mm nein 0,0 km/h 0,0 km/h 0,0 mm/h N 0,000 klux 0,0 W/qm 0,0 nein 10,83 µg/m³ 7,63 µg/m³ 02:50
02:55-2,8 °C 74 % 1029,5 hPa 0,0 mm 0,0 mm nein 1,6 km/h 3,2 km/h 0,0 mm/h SO 0,000 klux 0,0 W/qm 0,0 nein 10,20 µg/m³ 7,22 µg/m³ 02:55
03:00-2,8 °C 74 % 1029,5 hPa 0,0 mm 0,0 mm nein 1,6 km/h 3,2 km/h 0,0 mm/h SO 0,000 klux 0,0 W/qm 0,0 nein 10,48 µg/m³ 7,04 µg/m³ 03:00
03:05-2,8 °C 74 % 1029,5 hPa 0,0 mm 0,0 mm nein 1,6 km/h 3,2 km/h 0,0 mm/h SO 0,000 klux 0,0 W/qm 0,0 nein 10,12 µg/m³ 7,14 µg/m³ 03:05
03:10-2,8 °C 74 % 1029,5 hPa 0,0 mm 0,0 mm nein 3,2 km/h 4,8 km/h 0,0 mm/h SO 0,000 klux 0,0 W/qm 0,0 nein 9,89 µg/m³ 7,04 µg/m³ 03:10
03:15-2,8 °C 74 % 1029,5 hPa 0,0 mm 0,0 mm nein 1,6 km/h 3,2 km/h 0,0 mm/h SO 0,000 klux 0,0 W/qm 0,0 nein 8,76 µg/m³ 6,39 µg/m³ 03:15
03:20-2,8 °C 75 % 1029,5 hPa 0,0 mm 0,0 mm nein 0,0 km/h 1,6 km/h 0,0 mm/h SO 0,000 klux 0,0 W/qm 0,0 nein 9,84 µg/m³ 7,83 µg/m³ 03:20
03:25-2,8 °C 75 % 1029,5 hPa 0,0 mm 0,0 mm nein 0,0 km/h 0,0 km/h 0,0 mm/h N 0,000 klux 0,0 W/qm 0,0 nein 9,86 µg/m³ 7,53 µg/m³ 03:25
03:30-3,3 °C 75 % 1029,6 hPa 0,0 mm 0,0 mm nein 0,0 km/h 0,0 km/h 0,0 mm/h N 0,000 klux 0,0 W/qm 0,0 nein 9,72 µg/m³ 7,53 µg/m³ 03:30
03:35-3,3 °C 75 % 1029,7 hPa 0,0 mm 0,0 mm nein 0,0 km/h 0,0 km/h 0,0 mm/h N 0,000 klux 0,0 W/qm 0,0 nein 10,82 µg/m³ 7,32 µg/m³ 03:35
03:40-3,3 °C 75 % 1029,7 hPa 0,0 mm 0,0 mm nein 0,0 km/h 0,0 km/h 0,0 mm/h N 0,000 klux 0,0 W/qm 0,0 nein 9,31 µg/m³ 6,72 µg/m³ 03:40
03:45-3,3 °C 76 % 1029,7 hPa 0,0 mm 0,0 mm nein 0,0 km/h 0,0 km/h 0,0 mm/h N 0,000 klux 0,0 W/qm 0,0 nein 9,63 µg/m³ 6,99 µg/m³ 03:45
03:50-3,3 °C 76 % 1029,7 hPa 0,0 mm 0,0 mm nein 0,0 km/h 0,0 km/h 0,0 mm/h N 0,000 klux 0,0 W/qm 0,0 nein 9,46 µg/m³ 6,86 µg/m³ 03:50
03:55-3,3 °C 76 % 1029,7 hPa 0,0 mm 0,0 mm nein 0,0 km/h 0,0 km/h 0,0 mm/h N 0,000 klux 0,0 W/qm 0,0 nein 8,93 µg/m³ 6,99 µg/m³ 03:55
UhrzeitTemperaturFeuchteLuftdruckNiederschlagEvapotranspirationNiederschlag?WindWindböenRegenrateWindrichtungHelligkeitSolarstrahlungUV-IndexSonne?Feinstaub 10µmFeinstaub 2,5µmUhrzeit
04:00-3,3 °C 76 % 1029,8 hPa 0,0 mm 0,0 mm nein 0,0 km/h 0,0 km/h 0,0 mm/h N 0,000 klux 0,0 W/qm 0,0 nein 9,66 µg/m³ 7,27 µg/m³ 04:00
04:05-3,3 °C 76 % 1029,8 hPa 0,0 mm 0,0 mm nein 0,0 km/h 0,0 km/h 0,0 mm/h N 0,000 klux 0,0 W/qm 0,0 nein 10,60 µg/m³ 6,98 µg/m³ 04:05
04:10-3,3 °C 76 % 1029,9 hPa 0,0 mm 0,0 mm nein 0,0 km/h 0,0 km/h 0,0 mm/h N 0,000 klux 0,0 W/qm 0,0 nein 10,56 µg/m³ 7,12 µg/m³ 04:10
04:15-3,3 °C 76 % 1029,9 hPa 0,0 mm 0,0 mm nein 0,0 km/h 0,0 km/h 0,0 mm/h N 0,000 klux 0,0 W/qm 0,0 nein 10,21 µg/m³ 7,18 µg/m³ 04:15
04:20-3,9 °C 76 % 1030,0 hPa 0,0 mm 0,0 mm nein 0,0 km/h 0,0 km/h 0,0 mm/h N 0,000 klux 0,0 W/qm 0,0 nein 10,24 µg/m³ 7,73 µg/m³ 04:20
04:25-3,9 °C 77 % 1030,1 hPa 0,0 mm 0,0 mm nein 0,0 km/h 1,6 km/h 0,0 mm/h SO 0,000 klux 0,0 W/qm 0,0 nein 10,03 µg/m³ 7,53 µg/m³ 04:25
04:30-3,9 °C 77 % 1030,1 hPa 0,0 mm 0,0 mm nein 0,0 km/h 0,0 km/h 0,0 mm/h N 0,000 klux 0,0 W/qm 0,0 nein 10,65 µg/m³ 7,53 µg/m³ 04:30
04:35-3,9 °C 77 % 1030,1 hPa 0,0 mm 0,0 mm nein 0,0 km/h 0,0 km/h 0,0 mm/h N 0,000 klux 0,0 W/qm 0,0 nein 11,31 µg/m³ 8,15 µg/m³ 04:35
04:40-3,9 °C 77 % 1030,0 hPa 0,0 mm 0,0 mm nein 0,0 km/h 0,0 km/h 0,0 mm/h N 0,000 klux 0,0 W/qm 0,0 nein 10,16 µg/m³ 7,53 µg/m³ 04:40
04:45-3,9 °C 77 % 1030,0 hPa 0,0 mm 0,0 mm nein 0,0 km/h 0,0 km/h 0,0 mm/h N 0,000 klux 0,0 W/qm 0,0 nein 10,61 µg/m³ 7,22 µg/m³ 04:45
04:50-3,9 °C 78 % 1029,9 hPa 0,0 mm 0,0 mm nein 0,0 km/h 0,0 km/h 0,0 mm/h N 0,000 klux 0,0 W/qm 0,0 nein 11,74 µg/m³ 7,91 µg/m³ 04:50
04:55-3,9 °C 78 % 1030,0 hPa 0,0 mm 0,0 mm nein 0,0 km/h 0,0 km/h 0,0 mm/h N 0,000 klux 0,0 W/qm 0,0 nein 11,20 µg/m³ 7,80 µg/m³ 04:55
05:00-3,9 °C 78 % 1029,9 hPa 0,0 mm 0,0 mm nein 0,0 km/h 0,0 km/h 0,0 mm/h N 0,000 klux 0,0 W/qm 0,0 nein 11,61 µg/m³ 7,55 µg/m³ 05:00
05:05-3,9 °C 79 % 1030,0 hPa 0,0 mm 0,0 mm nein 0,0 km/h 0,0 km/h 0,0 mm/h N 0,000 klux 0,0 W/qm 0,0 nein 10,60 µg/m³ 7,53 µg/m³ 05:05
05:10-3,9 °C 78 % 1029,9 hPa 0,0 mm 0,0 mm nein 0,0 km/h 0,0 km/h 0,0 mm/h N 0,000 klux 0,0 W/qm 0,0 nein 11,09 µg/m³ 7,73 µg/m³ 05:10
05:15-3,9 °C 79 % 1030,0 hPa 0,0 mm 0,0 mm nein 0,0 km/h 0,0 km/h 0,0 mm/h N 0,000 klux 0,0 W/qm 0,0 nein 9,99 µg/m³ 6,91 µg/m³ 05:15
05:20-3,9 °C 79 % 1030,0 hPa 0,0 mm 0,0 mm nein 0,0 km/h 0,0 km/h 0,0 mm/h N 0,000 klux 0,0 W/qm 0,0 nein 9,58 µg/m³ 6,67 µg/m³ 05:20
05:25-4,4 °C 79 % 1030,1 hPa 0,0 mm 0,0 mm nein 0,0 km/h 0,0 km/h 0,0 mm/h N 0,000 klux 0,0 W/qm 0,0 nein 8,14 µg/m³ 6,24 µg/m³ 05:25
05:30-4,4 °C 80 % 1030,1 hPa 0,0 mm 0,0 mm nein 0,0 km/h 0,0 km/h 0,0 mm/h N 0,000 klux 0,0 W/qm 0,0 nein 10,46 µg/m³ 6,26 µg/m³ 05:30
05:35-4,4 °C 80 % 1030,1 hPa 0,0 mm 0,0 mm nein 0,0 km/h 0,0 km/h 0,0 mm/h N 0,000 klux 0,0 W/qm 0,0 nein 8,00 µg/m³ 5,84 µg/m³ 05:35
05:40-4,4 °C 80 % 1030,1 hPa 0,0 mm 0,0 mm nein 0,0 km/h 0,0 km/h 0,0 mm/h N 0,000 klux 0,0 W/qm 0,0 nein 8,25 µg/m³ 5,89 µg/m³ 05:40
05:45-4,4 °C 81 % 1030,0 hPa 0,0 mm 0,0 mm nein 0,0 km/h 0,0 km/h 0,0 mm/h N 0,000 klux 0,0 W/qm 0,0 nein 8,53 µg/m³ 5,60 µg/m³ 05:45
05:50-4,4 °C 81 % 1030,0 hPa 0,0 mm 0,0 mm nein 0,0 km/h 1,6 km/h 0,0 mm/h SO 0,000 klux 0,0 W/qm 0,0 nein 5,94 µg/m³ 4,83 µg/m³ 05:50
05:55-4,4 °C 81 % 1030,0 hPa 0,0 mm 0,0 mm nein 0,0 km/h 0,0 km/h 0,0 mm/h N 0,000 klux 0,0 W/qm 0,0 nein 8,67 µg/m³ 5,40 µg/m³ 05:55
UhrzeitTemperaturFeuchteLuftdruckNiederschlagEvapotranspirationNiederschlag?WindWindböenRegenrateWindrichtungHelligkeitSolarstrahlungUV-IndexSonne?Feinstaub 10µmFeinstaub 2,5µmUhrzeit
06:00-4,4 °C 81 % 1029,9 hPa 0,0 mm 0,0 mm nein 0,0 km/h 0,0 km/h 0,0 mm/h N 0,000 klux 0,0 W/qm 0,0 nein 7,82 µg/m³ 5,27 µg/m³ 06:00
06:05-4,4 °C 81 % 1029,9 hPa 0,0 mm 0,0 mm nein 0,0 km/h 0,0 km/h 0,0 mm/h N 0,000 klux 0,0 W/qm 0,0 nein 7,41 µg/m³ 5,11 µg/m³ 06:05
06:10-4,4 °C 81 % 1029,9 hPa 0,0 mm 0,0 mm nein 0,0 km/h 0,0 km/h 0,0 mm/h N 0,000 klux 0,0 W/qm 0,0 nein 7,55 µg/m³ 5,37 µg/m³ 06:10
06:15-4,4 °C 82 % 1029,9 hPa 0,0 mm 0,0 mm nein 0,0 km/h 0,0 km/h 0,0 mm/h N 0,000 klux 0,0 W/qm 0,0 nein 8,40 µg/m³ 5,50 µg/m³ 06:15
06:20-4,4 °C 82 % 1029,9 hPa 0,0 mm 0,0 mm nein 0,0 km/h 0,0 km/h 0,0 mm/h N 0,000 klux 0,0 W/qm 0,0 nein 6,57 µg/m³ 5,04 µg/m³ 06:20
06:25-4,4 °C 82 % 1029,9 hPa 0,0 mm 0,0 mm nein 0,0 km/h 0,0 km/h 0,0 mm/h N 0,000 klux 0,0 W/qm 0,0 nein 7,76 µg/m³ 5,16 µg/m³ 06:25
06:30-4,4 °C 82 % 1029,9 hPa 0,0 mm 0,0 mm nein 0,0 km/h 0,0 km/h 0,0 mm/h N 0,000 klux 0,0 W/qm 0,0 nein 7,73 µg/m³ 5,51 µg/m³ 06:30
06:35-4,4 °C 82 % 1029,9 hPa 0,0 mm 0,0 mm nein 0,0 km/h 0,0 km/h 0,0 mm/h N 0,000 klux 0,0 W/qm 0,0 nein 6,23 µg/m³ 5,13 µg/m³ 06:35
06:40-4,4 °C 82 % 1029,8 hPa 0,0 mm 0,0 mm nein 0,0 km/h 0,0 km/h 0,0 mm/h N 0,000 klux 3,0 W/qm 0,0 nein 7,52 µg/m³ 5,15 µg/m³ 06:40
06:45-4,4 °C 81 % 1029,9 hPa 0,0 mm 0,0 mm nein 0,0 km/h 0,0 km/h 0,0 mm/h N 0,000 klux 6,0 W/qm 0,0 nein 8,91 µg/m³ 5,80 µg/m³ 06:45
06:50-4,4 °C 81 % 1029,9 hPa 0,0 mm 0,0 mm nein 0,0 km/h 0,0 km/h 0,0 mm/h N 0,000 klux 8,0 W/qm 0,0 nein 9,86 µg/m³ 5,98 µg/m³ 06:50
06:55-4,4 °C 81 % 1029,9 hPa 0,0 mm 0,0 mm nein 0,0 km/h 0,0 km/h 0,0 mm/h N 0,000 klux 11,0 W/qm 0,0 nein 8,55 µg/m³ 6,16 µg/m³ 06:55
07:00-4,4 °C 81 % 1029,9 hPa 0,0 mm 0,0 mm nein 0,0 km/h 0,0 km/h 0,0 mm/h N 0,000 klux 13,0 W/qm 0,0 nein 9,88 µg/m³ 6,49 µg/m³ 07:00
07:05-4,4 °C 81 % 1029,8 hPa 0,0 mm 0,0 mm nein 0,0 km/h 0,0 km/h 0,0 mm/h N 0,000 klux 16,0 W/qm 0,0 nein 9,37 µg/m³ 6,16 µg/m³ 07:05
07:10-4,4 °C 81 % 1029,9 hPa 0,0 mm 0,0 mm nein 0,0 km/h 0,0 km/h 0,0 mm/h N 0,000 klux 24,0 W/qm 0,0 nein 10,06 µg/m³ 6,45 µg/m³ 07:10
07:15-4,4 °C 81 % 1029,8 hPa 0,0 mm 0,0 mm nein 0,0 km/h 0,0 km/h 0,0 mm/h N 0,000 klux 32,0 W/qm 0,0 nein 9,71 µg/m³ 6,28 µg/m³ 07:15
07:20-4,4 °C 82 % 1029,8 hPa 0,0 mm 0,0 mm nein 0,0 km/h 0,0 km/h 0,0 mm/h N 0,000 klux 41,0 W/qm 0,0 nein 8,28 µg/m³ 6,00 µg/m³ 07:20
07:25-4,4 °C 82 % 1029,8 hPa 0,0 mm 0,0 mm nein 0,0 km/h 0,0 km/h 0,0 mm/h N 0,000 klux 53,0 W/qm 0,0 nein 9,85 µg/m³ 6,08 µg/m³ 07:25
07:30-4,4 °C 82 % 1029,8 hPa 0,0 mm 0,0 mm nein 0,0 km/h 0,0 km/h 0,0 mm/h N 0,000 klux 66,0 W/qm 0,0 nein 9,69 µg/m³ 6,56 µg/m³ 07:30
07:35-4,4 °C 83 % 1029,8 hPa 0,0 mm 0,0 mm nein 0,0 km/h 0,0 km/h 0,0 mm/h N 0,000 klux 80,0 W/qm 0,0 nein 11,62 µg/m³ 8,05 µg/m³ 07:35
07:40-4,4 °C 83 % 1029,8 hPa 0,0 mm 0,0 mm nein 0,0 km/h 4,8 km/h 0,0 mm/h SO 0,000 klux 95,0 W/qm 0,0 nein 7,91 µg/m³ 5,03 µg/m³ 07:40
07:45-4,4 °C 84 % 1029,8 hPa 0,0 mm 0,0 mm nein 1,6 km/h 4,8 km/h 0,0 mm/h SO 0,000 klux 109,0 W/qm 0,0 nein 6,22 µg/m³ 4,80 µg/m³ 07:45
07:50-3,9 °C 85 % 1029,7 hPa 0,0 mm 0,0 mm nein 0,0 km/h 3,2 km/h 0,0 mm/h SO 0,000 klux 124,0 W/qm 0,0 nein 6,12 µg/m³ 4,36 µg/m³ 07:50
07:55-3,3 °C 86 % 1029,7 hPa 0,0 mm 0,0 mm nein 0,0 km/h 1,6 km/h 0,0 mm/h SO 0,000 klux 140,0 W/qm 0,0 nein 13,91 µg/m³ 7,89 µg/m³ 07:55
UhrzeitTemperaturFeuchteLuftdruckNiederschlagEvapotranspirationNiederschlag?WindWindböenRegenrateWindrichtungHelligkeitSolarstrahlungUV-IndexSonne?Feinstaub 10µmFeinstaub 2,5µmUhrzeit
08:00-2,8 °C 86 % 1029,6 hPa 0,0 mm 0,0 mm nein 0,0 km/h 1,6 km/h 0,0 mm/h SO 0,000 klux 156,0 W/qm 0,0 nein 8,22 µg/m³ 5,52 µg/m³ 08:00
08:05-2,2 °C 85 % 1029,5 hPa 0,0 mm 0,0 mm nein 0,0 km/h 1,6 km/h 0,0 mm/h SO 0,000 klux 175,0 W/qm 0,0 nein 6,14 µg/m³ 4,70 µg/m³ 08:05
08:10-1,7 °C 83 % 1029,5 hPa 0,0 mm 0,0 mm nein 0,0 km/h 1,6 km/h 0,0 mm/h SO 0,000 klux 193,0 W/qm 0,0 nein 5,81 µg/m³ 5,05 µg/m³ 08:10
08:15-1,1 °C 82 % 1029,4 hPa 0,0 mm 0,0 mm nein 0,0 km/h 1,6 km/h 0,0 mm/h SO 0,000 klux 210,0 W/qm 0,0 nein 6,77 µg/m³ 5,86 µg/m³ 08:15
08:20-0,6 °C 80 % 1029,4 hPa 0,0 mm 0,0 mm nein 0,0 km/h 1,6 km/h 0,0 mm/h SO 0,000 klux 225,0 W/qm 0,0 nein 9,41 µg/m³ 8,02 µg/m³ 08:20
08:250,0 °C 79 % 1029,4 hPa 0,0 mm 0,0 mm nein 0,0 km/h 1,6 km/h 0,0 mm/h SO 0,000 klux 244,0 W/qm 0,0 nein 9,97 µg/m³ 7,71 µg/m³ 08:25
08:300,0 °C 77 % 1029,4 hPa 0,0 mm 0,0 mm nein 1,6 km/h 3,2 km/h 0,0 mm/h SO 0,000 klux 261,0 W/qm 0,0 nein 11,68 µg/m³ 9,67 µg/m³ 08:30
08:350,6 °C 77 % 1029,4 hPa 0,0 mm 0,0 mm nein 0,0 km/h 1,6 km/h 0,0 mm/h SO 0,000 klux 277,0 W/qm 0,0 nein 9,67 µg/m³ 8,68 µg/m³ 08:35
08:401,1 °C 75 % 1029,2 hPa 0,0 mm 0,0 mm nein 1,6 km/h 3,2 km/h 0,0 mm/h SO 0,000 klux 293,0 W/qm 0,0 nein 12,86 µg/m³ 10,32 µg/m³ 08:40
08:451,7 °C 73 % 1029,1 hPa 0,0 mm 0,0 mm nein 1,6 km/h 3,2 km/h 0,0 mm/h SO 0,000 klux 307,0 W/qm 0,0 nein 10,06 µg/m³ 9,13 µg/m³ 08:45
08:502,2 °C 72 % 1029,0 hPa 0,0 mm 0,0 mm nein 1,6 km/h 3,2 km/h 0,0 mm/h SO 0,000 klux 321,0 W/qm 0,2 nein 10,66 µg/m³ 9,64 µg/m³ 08:50
08:552,2 °C 71 % 1029,1 hPa 0,0 mm 0,0 mm nein 1,6 km/h 3,2 km/h 0,0 mm/h SO 0,000 klux 334,0 W/qm 0,5 nein 10,94 µg/m³ 9,25 µg/m³ 08:55
09:002,8 °C 69 % 1028,9 hPa 0,0 mm 0,1 mm nein 3,2 km/h 8,0 km/h 0,0 mm/h O 0,000 klux 348,0 W/qm 0,5 nein 7,54 µg/m³ 6,81 µg/m³ 09:00
09:053,3 °C 68 % 1028,8 hPa 0,0 mm 0,0 mm nein 4,8 km/h 11,3 km/h 0,0 mm/h O 0,000 klux 363,0 W/qm 0,6 nein 8,62 µg/m³ 7,27 µg/m³ 09:05
09:103,3 °C 66 % 1028,8 hPa 0,0 mm 0,0 mm nein 6,4 km/h 9,7 km/h 0,0 mm/h O 0,000 klux 377,0 W/qm 0,6 nein 8,05 µg/m³ 7,29 µg/m³ 09:10
09:153,9 °C 64 % 1028,7 hPa 0,0 mm 0,0 mm nein 6,4 km/h 12,9 km/h 0,0 mm/h O 0,000 klux 390,0 W/qm 0,6 nein 8,54 µg/m³ 7,37 µg/m³ 09:15
09:203,9 °C 63 % 1028,7 hPa 0,0 mm 0,0 mm nein 8,0 km/h 12,9 km/h 0,0 mm/h O 0,000 klux 404,0 W/qm 0,7 nein 9,20 µg/m³ 7,25 µg/m³ 09:20
09:254,4 °C 62 % 1028,5 hPa 0,0 mm 0,0 mm nein 8,0 km/h 14,5 km/h 0,0 mm/h O 0,000 klux 416,0 W/qm 0,7 nein 9,28 µg/m³ 7,26 µg/m³ 09:25
09:305,0 °C 61 % 1028,4 hPa 0,0 mm 0,0 mm nein 8,0 km/h 14,5 km/h 0,0 mm/h O 0,000 klux 426,0 W/qm 0,7 nein 9,15 µg/m³ 7,53 µg/m³ 09:30
09:355,0 °C 59 % 1028,3 hPa 0,0 mm 0,0 mm nein 4,8 km/h 11,3 km/h 0,0 mm/h O 0,000 klux 438,0 W/qm 0,8 nein 7,45 µg/m³ 6,68 µg/m³ 09:35
09:405,6 °C 57 % 1028,3 hPa 0,0 mm 0,0 mm nein 6,4 km/h 16,1 km/h 0,0 mm/h O 0,000 klux 448,0 W/qm 0,8 nein 8,24 µg/m³ 7,49 µg/m³ 09:40
09:456,1 °C 56 % 1028,2 hPa 0,0 mm 0,0 mm nein 8,0 km/h 17,7 km/h 0,0 mm/h O 0,000 klux 459,0 W/qm 0,9 nein 8,94 µg/m³ 7,30 µg/m³ 09:45
09:506,1 °C 55 % 1028,2 hPa 0,0 mm 0,0 mm nein 6,4 km/h 14,5 km/h 0,0 mm/h O 0,000 klux 468,0 W/qm 0,9 nein 9,22 µg/m³ 7,22 µg/m³ 09:50
09:556,7 °C 54 % 1028,1 hPa 0,0 mm 0,0 mm nein 6,4 km/h 17,7 km/h 0,0 mm/h O 0,000 klux 478,0 W/qm 0,9 nein 8,98 µg/m³ 8,03 µg/m³ 09:55
UhrzeitTemperaturFeuchteLuftdruckNiederschlagEvapotranspirationNiederschlag?WindWindböenRegenrateWindrichtungHelligkeitSolarstrahlungUV-IndexSonne?Feinstaub 10µmFeinstaub 2,5µmUhrzeit
10:006,7 °C 53 % 1028,1 hPa 0,0 mm 0,2 mm nein 6,4 km/h 17,7 km/h 0,0 mm/h O 0,000 klux 488,0 W/qm 1,0 nein 9,07 µg/m³ 8,06 µg/m³ 10:00
10:057,2 °C 53 % 1028,0 hPa 0,0 mm 0,0 mm nein 6,4 km/h 16,1 km/h 0,0 mm/h OSO 0,000 klux 497,0 W/qm 1,0 nein 9,66 µg/m³ 8,61 µg/m³ 10:05
10:107,2 °C 53 % 1027,9 hPa 0,0 mm 0,0 mm nein 4,8 km/h 11,3 km/h 0,0 mm/h SO 0,000 klux 507,0 W/qm 1,1 nein 8,20 µg/m³ 7,22 µg/m³ 10:10
10:157,8 °C 51 % 1027,9 hPa 0,0 mm 0,0 mm nein 4,8 km/h 12,9 km/h 0,0 mm/h O 0,000 klux 516,0 W/qm 1,1 nein 10,72 µg/m³ 8,77 µg/m³ 10:15
10:207,8 °C 51 % 1027,9 hPa 0,0 mm 0,0 mm nein 6,4 km/h 14,5 km/h 0,0 mm/h OSO 0,000 klux 526,0 W/qm 1,2 nein 9,89 µg/m³ 8,48 µg/m³ 10:20
10:257,8 °C 50 % 1027,8 hPa 0,0 mm 0,0 mm nein 6,4 km/h 17,7 km/h 0,0 mm/h OSO 0,000 klux 535,0 W/qm 1,2 nein 9,75 µg/m³ 8,80 µg/m³ 10:25
10:308,3 °C 49 % 1027,7 hPa 0,0 mm 0,0 mm nein 8,0 km/h 16,1 km/h 0,0 mm/h OSO 0,000 klux 542,0 W/qm 1,2 nein 10,32 µg/m³ 9,13 µg/m³ 10:30
10:358,3 °C 50 % 1027,7 hPa 0,0 mm 0,0 mm nein 6,4 km/h 14,5 km/h 0,0 mm/h OSO 0,000 klux 552,0 W/qm 1,3 nein 10,31 µg/m³ 9,27 µg/m³ 10:35
10:408,9 °C 49 % 1027,5 hPa 0,0 mm 0,0 mm nein 4,8 km/h 12,9 km/h 0,0 mm/h SO 0,000 klux 559,0 W/qm 1,3 nein 12,35 µg/m³ 9,57 µg/m³ 10:40
10:458,9 °C 49 % 1027,6 hPa 0,0 mm 0,0 mm nein 4,8 km/h 9,7 km/h 0,0 mm/h OSO 0,000 klux 568,0 W/qm 1,3 nein 11,21 µg/m³ 10,02 µg/m³ 10:45
10:509,4 °C 48 % 1027,4 hPa 0,0 mm 0,0 mm nein 6,4 km/h 12,9 km/h 0,0 mm/h O 0,000 klux 576,0 W/qm 1,4 nein 10,94 µg/m³ 9,78 µg/m³ 10:50
10:559,4 °C 48 % 1027,4 hPa 0,0 mm 0,0 mm nein 8,0 km/h 16,1 km/h 0,0 mm/h O 0,000 klux 585,0 W/qm 1,4 nein 9,37 µg/m³ 8,38 µg/m³ 10:55
11:009,4 °C 48 % 1027,3 hPa 0,0 mm 0,3 mm nein 6,4 km/h 14,5 km/h 0,0 mm/h O 0,000 klux 594,0 W/qm 1,5 nein 11,72 µg/m³ 9,55 µg/m³ 11:00
11:059,4 °C 46 % 1027,3 hPa 0,0 mm 0,0 mm nein 8,0 km/h 14,5 km/h 0,0 mm/h O 0,000 klux 602,0 W/qm 1,5 nein 11,14 µg/m³ 10,06 µg/m³ 11:05
11:1010,0 °C 47 % 1027,2 hPa 0,0 mm 0,0 mm nein 3,2 km/h 8,0 km/h 0,0 mm/h NO 0,000 klux 608,0 W/qm 1,5 nein 10,98 µg/m³ 9,81 µg/m³ 11:10
11:1510,0 °C 46 % 1027,1 hPa 0,0 mm 0,0 mm nein 4,8 km/h 12,9 km/h 0,0 mm/h O 0,000 klux 616,0 W/qm 1,6 nein 9,99 µg/m³ 9,06 µg/m³ 11:15
11:2010,0 °C 45 % 1027,1 hPa 0,0 mm 0,0 mm nein 8,0 km/h 14,5 km/h 0,0 mm/h O 0,000 klux 623,0 W/qm 1,6 nein 11,41 µg/m³ 9,17 µg/m³ 11:20
11:2510,6 °C 46 % 1027,0 hPa 0,0 mm 0,0 mm nein 4,8 km/h 11,3 km/h 0,0 mm/h ONO 0,000 klux 627,0 W/qm 1,6 nein 10,89 µg/m³ 9,51 µg/m³ 11:25
11:3010,6 °C 45 % 1027,0 hPa 0,0 mm 0,0 mm nein 8,0 km/h 19,3 km/h 0,0 mm/h O 0,000 klux 633,0 W/qm 1,6 nein 9,50 µg/m³ 8,68 µg/m³ 11:30
11:3510,6 °C 44 % 1027,0 hPa 0,0 mm 0,0 mm nein 9,7 km/h 16,1 km/h 0,0 mm/h O 0,000 klux 637,0 W/qm 1,7 nein 10,69 µg/m³ 9,42 µg/m³ 11:35
11:4010,6 °C 44 % 1027,0 hPa 0,0 mm 0,0 mm nein 8,0 km/h 17,7 km/h 0,0 mm/h OSO 0,000 klux 642,0 W/qm 1,7 nein 11,32 µg/m³ 9,39 µg/m³ 11:40
11:4510,6 °C 44 % 1027,0 hPa 0,0 mm 0,0 mm nein 9,7 km/h 19,3 km/h 0,0 mm/h O 0,000 klux 649,0 W/qm 1,7 nein 14,01 µg/m³ 10,56 µg/m³ 11:45
11:5010,6 °C 44 % 1026,9 hPa 0,0 mm 0,0 mm nein 11,3 km/h 19,3 km/h 0,0 mm/h O 0,000 klux 652,0 W/qm 1,7 nein 11,42 µg/m³ 9,34 µg/m³ 11:50
11:5510,6 °C 42 % 1026,9 hPa 0,0 mm 0,0 mm nein 9,7 km/h 19,3 km/h 0,0 mm/h OSO 0,000 klux 657,0 W/qm 1,7 nein 9,78 µg/m³ 8,74 µg/m³ 11:55
UhrzeitTemperaturFeuchteLuftdruckNiederschlagEvapotranspirationNiederschlag?WindWindböenRegenrateWindrichtungHelligkeitSolarstrahlungUV-IndexSonne?Feinstaub 10µmFeinstaub 2,5µmUhrzeit
12:0010,6 °C 42 % 1026,8 hPa 0,0 mm 0,3 mm nein 12,9 km/h 24,1 km/h 0,0 mm/h OSO 0,000 klux 659,0 W/qm 1,8 nein 9,93 µg/m³ 8,54 µg/m³ 12:00
12:0511,1 °C 42 % 1026,8 hPa 0,0 mm 0,0 mm nein 8,0 km/h 19,3 km/h 0,0 mm/h OSO 0,000 klux 662,0 W/qm 1,8 nein 9,69 µg/m³ 8,71 µg/m³ 12:05
12:1011,1 °C 42 % 1026,7 hPa 0,0 mm 0,0 mm nein 8,0 km/h 16,1 km/h 0,0 mm/h OSO 0,000 klux 661,0 W/qm 1,8 nein 9,29 µg/m³ 8,36 µg/m³ 12:10
12:1511,1 °C 41 % 1026,6 hPa 0,0 mm 0,0 mm nein 9,7 km/h 19,3 km/h 0,0 mm/h O 0,000 klux 662,0 W/qm 1,8 nein 13,10 µg/m³ 9,82 µg/m³ 12:15
12:2011,1 °C 41 % 1026,5 hPa 0,0 mm 0,0 mm nein 9,7 km/h 17,7 km/h 0,0 mm/h ONO 0,000 klux 662,0 W/qm 1,8 nein 11,22 µg/m³ 9,54 µg/m³ 12:20
12:2511,1 °C 40 % 1026,4 hPa 0,0 mm 0,0 mm nein 9,7 km/h 17,7 km/h 0,0 mm/h O 0,000 klux 661,0 W/qm 1,8 nein 10,81 µg/m³ 8,99 µg/m³ 12:25
12:3011,1 °C 40 % 1026,4 hPa 0,0 mm 0,0 mm nein 9,7 km/h 16,1 km/h 0,0 mm/h SO 0,000 klux 663,0 W/qm 1,8 nein 12,97 µg/m³ 11,25 µg/m³ 12:30
12:3511,1 °C 40 % 1026,3 hPa 0,0 mm 0,0 mm nein 12,9 km/h 24,1 km/h 0,0 mm/h OSO 0,000 klux 663,0 W/qm 1,8 nein 9,78 µg/m³ 8,16 µg/m³ 12:35
12:4011,1 °C 40 % 1026,3 hPa 0,0 mm 0,0 mm nein 8,0 km/h 22,5 km/h 0,0 mm/h ONO 0,000 klux 660,0 W/qm 1,8 nein 11,06 µg/m³ 8,34 µg/m³ 12:40
12:4511,1 °C 39 % 1026,3 hPa 0,0 mm 0,0 mm nein 9,7 km/h 16,1 km/h 0,0 mm/h O 0,000 klux 660,0 W/qm 1,7 nein 16,47 µg/m³ 11,25 µg/m³ 12:45
12:5011,1 °C 40 % 1026,2 hPa 0,0 mm 0,0 mm nein 9,7 km/h 19,3 km/h 0,0 mm/h ONO 0,000 klux 657,0 W/qm 1,7 nein 10,78 µg/m³ 9,07 µg/m³ 12:50
12:5511,1 °C 40 % 1026,2 hPa 0,0 mm 0,0 mm nein 9,7 km/h 19,3 km/h 0,0 mm/h O 0,000 klux 655,0 W/qm 1,7 nein 13,81 µg/m³ 8,41 µg/m³ 12:55
13:0011,1 °C 39 % 1026,2 hPa 0,0 mm 0,4 mm nein 9,7 km/h 22,5 km/h 0,0 mm/h O 0,000 klux 653,0 W/qm 1,7 nein 10,51 µg/m³ 8,91 µg/m³ 13:00
13:0511,1 °C 39 % 1026,2 hPa 0,0 mm 0,0 mm nein 8,0 km/h 16,1 km/h 0,0 mm/h ONO 0,000 klux 651,0 W/qm 1,7 nein 9,78 µg/m³ 8,84 µg/m³ 13:05
13:1011,1 °C 41 % 1026,1 hPa 0,0 mm 0,0 mm nein 6,4 km/h 14,5 km/h 0,0 mm/h O 0,000 klux 649,0 W/qm 1,7 nein 9,40 µg/m³ 8,31 µg/m³ 13:10
13:1511,1 °C 38 % 1026,0 hPa 0,0 mm 0,0 mm nein 8,0 km/h 16,1 km/h 0,0 mm/h ONO 0,000 klux 641,0 W/qm 1,7 nein 9,36 µg/m³ 8,41 µg/m³ 13:15
13:2011,1 °C 38 % 1026,0 hPa 0,0 mm 0,0 mm nein 12,9 km/h 27,4 km/h 0,0 mm/h O 0,000 klux 643,0 W/qm 1,7 nein 9,83 µg/m³ 8,88 µg/m³ 13:20
13:2511,1 °C 38 % 1025,9 hPa 0,0 mm 0,0 mm nein 8,0 km/h 14,5 km/h 0,0 mm/h ONO 0,000 klux 637,0 W/qm 1,6 nein 9,45 µg/m³ 7,59 µg/m³ 13:25
13:3011,1 °C 38 % 1025,8 hPa 0,0 mm 0,0 mm nein 3,2 km/h 8,0 km/h 0,0 mm/h NO 0,000 klux 635,0 W/qm 1,6 nein 10,68 µg/m³ 8,41 µg/m³ 13:30
13:3511,7 °C 39 % 1025,7 hPa 0,0 mm 0,0 mm nein 4,8 km/h 12,9 km/h 0,0 mm/h OSO 0,000 klux 630,0 W/qm 1,6 nein 9,38 µg/m³ 8,44 µg/m³ 13:35
13:4011,1 °C 37 % 1025,7 hPa 0,0 mm 0,0 mm nein 9,7 km/h 17,7 km/h 0,0 mm/h O 0,000 klux 621,0 W/qm 1,6 nein 10,15 µg/m³ 7,97 µg/m³ 13:40
13:4511,7 °C 38 % 1025,5 hPa 0,0 mm 0,0 mm nein 11,3 km/h 22,5 km/h 0,0 mm/h O 0,000 klux 615,0 W/qm 1,5 nein 9,45 µg/m³ 8,50 µg/m³ 13:45
13:5011,7 °C 37 % 1025,5 hPa 0,0 mm 0,0 mm nein 9,7 km/h 24,1 km/h 0,0 mm/h OSO 0,000 klux 608,0 W/qm 1,5 nein 9,39 µg/m³ 8,51 µg/m³ 13:50
13:5511,7 °C 37 % 1025,5 hPa 0,0 mm 0,0 mm nein 8,0 km/h 17,7 km/h 0,0 mm/h O 0,000 klux 599,0 W/qm 1,5 nein 9,39 µg/m³ 8,44 µg/m³ 13:55
UhrzeitTemperaturFeuchteLuftdruckNiederschlagEvapotranspirationNiederschlag?WindWindböenRegenrateWindrichtungHelligkeitSolarstrahlungUV-IndexSonne?Feinstaub 10µmFeinstaub 2,5µmUhrzeit
14:0011,7 °C 37 % 1025,4 hPa 0,0 mm 0,4 mm nein 8,0 km/h 19,3 km/h 0,0 mm/h ONO 0,000 klux 591,0 W/qm 1,4 nein 9,17 µg/m³ 8,22 µg/m³ 14:00
14:0511,7 °C 36 % 1025,5 hPa 0,0 mm 0,0 mm nein 8,0 km/h 16,1 km/h 0,0 mm/h O 0,000 klux 587,0 W/qm 1,4 nein 10,18 µg/m³ 8,19 µg/m³ 14:05
14:1011,7 °C 36 % 1025,4 hPa 0,0 mm 0,0 mm nein 9,7 km/h 19,3 km/h 0,0 mm/h ONO 0,000 klux 579,0 W/qm 1,4 nein 11,26 µg/m³ 8,98 µg/m³ 14:10
14:1511,7 °C 36 % 1025,3 hPa 0,0 mm 0,0 mm nein 9,7 km/h 19,3 km/h 0,0 mm/h ONO 0,000 klux 570,0 W/qm 1,3 nein 9,20 µg/m³ 8,35 µg/m³ 14:15
14:2011,7 °C 34 % 1025,4 hPa 0,0 mm 0,0 mm nein 11,3 km/h 20,9 km/h 0,0 mm/h O 0,000 klux 562,0 W/qm 1,3 nein 8,43 µg/m³ 7,54 µg/m³ 14:20
14:2511,7 °C 33 % 1025,3 hPa 0,0 mm 0,0 mm nein 8,0 km/h 17,7 km/h 0,0 mm/h O 0,000 klux 554,0 W/qm 1,3 nein 8,43 µg/m³ 6,89 µg/m³ 14:25
14:3011,7 °C 32 % 1025,3 hPa 0,0 mm 0,0 mm nein 11,3 km/h 20,9 km/h 0,0 mm/h O 0,000 klux 546,0 W/qm 1,2 nein 7,90 µg/m³ 7,13 µg/m³ 14:30
14:3511,7 °C 34 % 1025,2 hPa 0,0 mm 0,0 mm nein 11,3 km/h 19,3 km/h 0,0 mm/h O 0,000 klux 539,0 W/qm 1,2 nein 8,05 µg/m³ 7,19 µg/m³ 14:35
14:4012,2 °C 33 % 1025,1 hPa 0,0 mm 0,0 mm nein 12,9 km/h 20,9 km/h 0,0 mm/h O 0,000 klux 531,0 W/qm 1,1 nein 8,43 µg/m³ 7,66 µg/m³ 14:40
14:4511,7 °C 33 % 1025,1 hPa 0,0 mm 0,0 mm nein 12,9 km/h 25,7 km/h 0,0 mm/h O 0,000 klux 521,0 W/qm 1,1 nein 8,87 µg/m³ 7,11 µg/m³ 14:45
14:5011,7 °C 33 % 1025,1 hPa 0,0 mm 0,0 mm nein 12,9 km/h 22,5 km/h 0,0 mm/h O 0,000 klux 512,0 W/qm 1,1 nein 7,43 µg/m³ 6,47 µg/m³ 14:50
14:5512,2 °C 34 % 1025,0 hPa 0,0 mm 0,0 mm nein 11,3 km/h 22,5 km/h 0,0 mm/h O 0,000 klux 500,0 W/qm 1,0 nein 6,77 µg/m³ 5,94 µg/m³ 14:55
15:0012,2 °C 33 % 1025,1 hPa 0,0 mm 0,4 mm nein 12,9 km/h 22,5 km/h 0,0 mm/h O 0,000 klux 489,0 W/qm 1,0 nein 7,14 µg/m³ 6,47 µg/m³ 15:00
15:0512,2 °C 32 % 1024,9 hPa 0,0 mm 0,0 mm nein 11,3 km/h 22,5 km/h 0,0 mm/h O 0,000 klux 477,0 W/qm 0,9 nein 6,43 µg/m³ 5,14 µg/m³ 15:05
15:1012,2 °C 31 % 1025,0 hPa 0,0 mm 0,0 mm nein 9,7 km/h 19,3 km/h 0,0 mm/h OSO 0,000 klux 468,0 W/qm 0,9 nein 5,25 µg/m³ 4,74 µg/m³ 15:10
15:1512,2 °C 30 % 1025,0 hPa 0,0 mm 0,0 mm nein 11,3 km/h 22,5 km/h 0,0 mm/h OSO 0,000 klux 458,0 W/qm 0,9 nein 5,33 µg/m³ 4,84 µg/m³ 15:15
15:2011,7 °C 29 % 1025,0 hPa 0,0 mm 0,0 mm nein 11,3 km/h 19,3 km/h 0,0 mm/h OSO 0,000 klux 449,0 W/qm 0,8 nein 5,57 µg/m³ 5,08 µg/m³ 15:20
15:2511,7 °C 31 % 1024,9 hPa 0,0 mm 0,0 mm nein 11,3 km/h 19,3 km/h 0,0 mm/h O 0,000 klux 434,0 W/qm 0,8 nein 7,08 µg/m³ 5,31 µg/m³ 15:25
15:3011,7 °C 31 % 1024,9 hPa 0,0 mm 0,0 mm nein 9,7 km/h 16,1 km/h 0,0 mm/h O 0,000 klux 423,0 W/qm 0,7 nein 4,93 µg/m³ 3,87 µg/m³ 15:30
15:3511,7 °C 29 % 1024,9 hPa 0,0 mm 0,0 mm nein 11,3 km/h 22,5 km/h 0,0 mm/h O 0,000 klux 412,0 W/qm 0,7 nein 5,51 µg/m³ 4,27 µg/m³ 15:35
15:4011,7 °C 31 % 1024,8 hPa 0,0 mm 0,0 mm nein 9,7 km/h 20,9 km/h 0,0 mm/h OSO 0,000 klux 398,0 W/qm 0,7 nein 7,25 µg/m³ 4,83 µg/m³ 15:40
15:4511,7 °C 31 % 1024,9 hPa 0,0 mm 0,0 mm nein 11,3 km/h 22,5 km/h 0,0 mm/h OSO 0,000 klux 384,0 W/qm 0,6 nein 5,58 µg/m³ 4,54 µg/m³ 15:45
15:5011,7 °C 31 % 1024,9 hPa 0,0 mm 0,0 mm nein 9,7 km/h 17,7 km/h 0,0 mm/h ONO 0,000 klux 370,0 W/qm 0,6 nein 5,83 µg/m³ 4,86 µg/m³ 15:50
15:5511,7 °C 31 % 1024,8 hPa 0,0 mm 0,0 mm nein 12,9 km/h 25,7 km/h 0,0 mm/h O 0,000 klux 358,0 W/qm 0,5 nein 5,99 µg/m³ 5,03 µg/m³ 15:55
UhrzeitTemperaturFeuchteLuftdruckNiederschlagEvapotranspirationNiederschlag?WindWindböenRegenrateWindrichtungHelligkeitSolarstrahlungUV-IndexSonne?Feinstaub 10µmFeinstaub 2,5µmUhrzeit
16:0011,7 °C 30 % 1024,8 hPa 0,0 mm 0,3 mm nein 9,7 km/h 17,7 km/h 0,0 mm/h OSO 0,000 klux 344,0 W/qm 0,5 nein 7,78 µg/m³ 4,07 µg/m³ 16:00
16:0511,7 °C 29 % 1024,8 hPa 0,0 mm 0,0 mm nein 11,3 km/h 20,9 km/h 0,0 mm/h O 0,000 klux 329,0 W/qm 0,2 nein 4,47 µg/m³ 4,08 µg/m³ 16:05
16:1011,7 °C 28 % 1024,8 hPa 0,0 mm 0,0 mm nein 12,9 km/h 19,3 km/h 0,0 mm/h O 0,000 klux 315,0 W/qm 0,0 nein 6,62 µg/m³ 4,67 µg/m³ 16:10
16:1511,7 °C 30 % 1024,7 hPa 0,0 mm 0,0 mm nein 9,7 km/h 22,5 km/h 0,0 mm/h ONO 0,000 klux 301,0 W/qm 0,0 nein 5,43 µg/m³ 4,94 µg/m³ 16:15
16:2011,7 °C 30 % 1024,8 hPa 0,0 mm 0,0 mm nein 11,3 km/h 20,9 km/h 0,0 mm/h O 0,000 klux 285,0 W/qm 0,0 nein 5,11 µg/m³ 4,58 µg/m³ 16:20
16:2511,7 °C 30 % 1024,7 hPa 0,0 mm 0,0 mm nein 9,7 km/h 19,3 km/h 0,0 mm/h O 0,000 klux 266,0 W/qm 0,0 nein 6,10 µg/m³ 5,43 µg/m³ 16:25
16:3011,7 °C 30 % 1024,7 hPa 0,0 mm 0,0 mm nein 8,0 km/h 16,1 km/h 0,0 mm/h O 0,000 klux 250,0 W/qm 0,0 nein 7,17 µg/m³ 6,37 µg/m³ 16:30
16:3511,7 °C 30 % 1024,8 hPa 0,0 mm 0,0 mm nein 9,7 km/h 19,3 km/h 0,0 mm/h O 0,000 klux 232,0 W/qm 0,0 nein 5,72 µg/m³ 5,23 µg/m³ 16:35
16:4011,7 °C 30 % 1024,8 hPa 0,0 mm 0,0 mm nein 11,3 km/h 20,9 km/h 0,0 mm/h OSO 0,000 klux 213,0 W/qm 0,0 nein 6,46 µg/m³ 5,45 µg/m³ 16:40
16:4511,7 °C 31 % 1024,7 hPa 0,0 mm 0,0 mm nein 11,3 km/h 17,7 km/h 0,0 mm/h O 0,000 klux 194,0 W/qm 0,0 nein 6,09 µg/m³ 5,51 µg/m³ 16:45
16:5011,1 °C 32 % 1024,8 hPa 0,0 mm 0,0 mm nein 9,7 km/h 20,9 km/h 0,0 mm/h O 0,000 klux 175,0 W/qm 0,0 nein 6,49 µg/m³ 5,20 µg/m³ 16:50
16:5511,1 °C 33 % 1024,9 hPa 0,0 mm 0,0 mm nein 8,0 km/h 17,7 km/h 0,0 mm/h O 0,000 klux 157,0 W/qm 0,0 nein 12,56 µg/m³ 7,40 µg/m³ 16:55
17:0011,1 °C 33 % 1024,8 hPa 0,0 mm 0,2 mm nein 6,4 km/h 14,5 km/h 0,0 mm/h O 0,000 klux 140,0 W/qm 0,0 nein 10,02 µg/m³ 6,53 µg/m³ 17:00
17:0511,1 °C 34 % 1024,8 hPa 0,0 mm 0,0 mm nein 9,7 km/h 22,5 km/h 0,0 mm/h O 0,000 klux 122,0 W/qm 0,0 nein 9,80 µg/m³ 7,02 µg/m³ 17:05
17:1011,1 °C 34 % 1024,8 hPa 0,0 mm 0,0 mm nein 11,3 km/h 20,9 km/h 0,0 mm/h O 0,000 klux 106,0 W/qm 0,0 nein 6,29 µg/m³ 5,34 µg/m³ 17:10
17:1511,1 °C 34 % 1024,6 hPa 0,0 mm 0,0 mm nein 9,7 km/h 17,7 km/h 0,0 mm/h ONO 0,000 klux 91,0 W/qm 0,0 nein 8,27 µg/m³ 5,17 µg/m³ 17:15
17:2011,1 °C 35 % 1024,8 hPa 0,0 mm 0,0 mm nein 6,4 km/h 17,7 km/h 0,0 mm/h ONO 0,000 klux 75,0 W/qm 0,0 nein 6,69 µg/m³ 6,02 µg/m³ 17:20
17:2511,1 °C 34 % 1024,8 hPa 0,0 mm 0,0 mm nein 8,0 km/h 17,7 km/h 0,0 mm/h O 0,000 klux 62,0 W/qm 0,0 nein 6,10 µg/m³ 4,79 µg/m³ 17:25
17:3011,1 °C 35 % 1024,8 hPa 0,0 mm 0,0 mm nein 8,0 km/h 14,5 km/h 0,0 mm/h OSO 0,000 klux 52,0 W/qm 0,0 nein 7,45 µg/m³ 4,71 µg/m³ 17:30
17:3510,6 °C 35 % 1024,8 hPa 0,0 mm 0,0 mm nein 6,4 km/h 12,9 km/h 0,0 mm/h OSO 0,000 klux 39,0 W/qm 0,0 nein 5,19 µg/m³ 4,71 µg/m³ 17:35
17:4010,6 °C 34 % 1024,9 hPa 0,0 mm 0,0 mm nein 8,0 km/h 14,5 km/h 0,0 mm/h O 0,000 klux 29,0 W/qm 0,0 nein 6,13 µg/m³ 4,67 µg/m³ 17:40
17:4510,6 °C 35 % 1024,9 hPa 0,0 mm 0,0 mm nein 6,4 km/h 11,3 km/h 0,0 mm/h O 0,000 klux 22,0 W/qm 0,0 nein 6,85 µg/m³ 4,87 µg/m³ 17:45
17:5010,6 °C 35 % 1024,9 hPa 0,0 mm 0,0 mm nein 6,4 km/h 9,7 km/h 0,0 mm/h O 0,000 klux 18,0 W/qm 0,0 nein 7,54 µg/m³ 5,16 µg/m³ 17:50
17:5510,6 °C 35 % 1025,0 hPa 0,0 mm 0,0 mm nein 6,4 km/h 12,9 km/h 0,0 mm/h O 0,000 klux 15,0 W/qm 0,0 nein 7,07 µg/m³ 4,90 µg/m³ 17:55
UhrzeitTemperaturFeuchteLuftdruckNiederschlagEvapotranspirationNiederschlag?WindWindböenRegenrateWindrichtungHelligkeitSolarstrahlungUV-IndexSonne?Feinstaub 10µmFeinstaub 2,5µmUhrzeit
18:0010,0 °C 35 % 1025,0 hPa 0,0 mm 0,1 mm nein 6,4 km/h 11,3 km/h 0,0 mm/h O 0,000 klux 12,0 W/qm 0,0 nein 5,63 µg/m³ 5,06 µg/m³ 18:00
18:0510,0 °C 35 % 1025,1 hPa 0,0 mm 0,0 mm nein 6,4 km/h 11,3 km/h 0,0 mm/h O 0,000 klux 11,0 W/qm 0,0 nein 5,95 µg/m³ 4,97 µg/m³ 18:05
18:1010,0 °C 35 % 1025,1 hPa 0,0 mm 0,0 mm nein 4,8 km/h 9,7 km/h 0,0 mm/h O 0,000 klux 8,0 W/qm 0,0 nein 5,47 µg/m³ 4,78 µg/m³ 18:10
18:1510,0 °C 36 % 1025,1 hPa 0,0 mm 0,0 mm nein 4,8 km/h 9,7 km/h 0,0 mm/h O 0,000 klux 5,0 W/qm 0,0 nein 7,01 µg/m³ 5,33 µg/m³ 18:15
18:209,4 °C 36 % 1025,4 hPa 0,0 mm 0,0 mm nein 8,0 km/h 20,9 km/h 0,0 mm/h O 0,000 klux 1,0 W/qm 0,0 nein 7,80 µg/m³ 4,95 µg/m³ 18:20
18:259,4 °C 36 % 1025,4 hPa 0,0 mm 0,0 mm nein 8,0 km/h 19,3 km/h 0,0 mm/h O 0,000 klux 0,0 W/qm 0,0 nein 7,40 µg/m³ 5,26 µg/m³ 18:25
18:309,4 °C 37 % 1025,4 hPa 0,0 mm 0,0 mm nein 8,0 km/h 16,1 km/h 0,0 mm/h O 0,000 klux 0,0 W/qm 0,0 nein 5,91 µg/m³ 5,34 µg/m³ 18:30
18:359,4 °C 38 % 1025,5 hPa 0,0 mm 0,0 mm nein 9,7 km/h 20,9 km/h 0,0 mm/h OSO 0,000 klux 0,0 W/qm 0,0 nein 5,95 µg/m³ 5,23 µg/m³ 18:35
18:408,9 °C 39 % 1025,5 hPa 0,0 mm 0,0 mm nein 9,7 km/h 17,7 km/h 0,0 mm/h O 0,000 klux 0,0 W/qm 0,0 nein 6,43 µg/m³ 5,77 µg/m³ 18:40
18:458,9 °C 40 % 1025,6 hPa 0,0 mm 0,0 mm nein 9,7 km/h 20,9 km/h 0,0 mm/h O 0,000 klux 0,0 W/qm 0,0 nein 9,09 µg/m³ 6,72 µg/m³ 18:45
18:508,9 °C 40 % 1025,6 hPa 0,0 mm 0,0 mm nein 8,0 km/h 12,9 km/h 0,0 mm/h O 0,000 klux 0,0 W/qm 0,0 nein 7,41 µg/m³ 6,19 µg/m³ 18:50
18:558,9 °C 41 % 1025,6 hPa 0,0 mm 0,0 mm nein 6,4 km/h 14,5 km/h 0,0 mm/h O 0,000 klux 0,0 W/qm 0,0 nein 8,40 µg/m³ 6,16 µg/m³ 18:55
19:008,3 °C 42 % 1025,8 hPa 0,0 mm 0,1 mm nein 6,4 km/h 12,9 km/h 0,0 mm/h O 0,000 klux 0,0 W/qm 0,0 nein 8,64 µg/m³ 7,22 µg/m³ 19:00
19:058,3 °C 43 % 1025,8 hPa 0,0 mm 0,0 mm nein 6,4 km/h 19,3 km/h 0,0 mm/h O 0,000 klux 0,0 W/qm 0,0 nein 9,46 µg/m³ 7,12 µg/m³ 19:05
19:108,3 °C 43 % 1025,8 hPa 0,0 mm 0,0 mm nein 6,4 km/h 12,9 km/h 0,0 mm/h O 0,000 klux 0,0 W/qm 0,0 nein 10,08 µg/m³ 7,37 µg/m³ 19:10
19:158,3 °C 44 % 1025,8 hPa 0,0 mm 0,0 mm nein 8,0 km/h 16,1 km/h 0,0 mm/h O 0,000 klux 0,0 W/qm 0,0 nein 9,82 µg/m³ 7,52 µg/m³ 19:15
19:208,3 °C 45 % 1025,8 hPa 0,0 mm 0,0 mm nein 6,4 km/h 14,5 km/h 0,0 mm/h O 0,000 klux 0,0 W/qm 0,0 nein 6,62 µg/m³ 5,68 µg/m³ 19:20
19:257,8 °C 45 % 1025,9 hPa 0,0 mm 0,0 mm nein 3,2 km/h 9,7 km/h 0,0 mm/h O 0,000 klux 0,0 W/qm 0,0 nein 8,18 µg/m³ 6,96 µg/m³ 19:25
19:307,8 °C 46 % 1025,9 hPa 0,0 mm 0,0 mm nein 6,4 km/h 12,9 km/h 0,0 mm/h O 0,000 klux 0,0 W/qm 0,0 nein 7,83 µg/m³ 6,80 µg/m³ 19:30
19:357,8 °C 47 % 1025,9 hPa 0,0 mm 0,0 mm nein 8,0 km/h 16,1 km/h 0,0 mm/h O 0,000 klux 0,0 W/qm 0,0 nein 8,78 µg/m³ 6,07 µg/m³ 19:35
19:407,8 °C 48 % 1025,9 hPa 0,0 mm 0,0 mm nein 8,0 km/h 14,5 km/h 0,0 mm/h O 0,000 klux 0,0 W/qm 0,0 nein 9,72 µg/m³ 5,97 µg/m³ 19:40
19:457,2 °C 48 % 1026,0 hPa 0,0 mm 0,0 mm nein 9,7 km/h 20,9 km/h 0,0 mm/h O 0,000 klux 0,0 W/qm 0,0 nein 8,67 µg/m³ 7,00 µg/m³ 19:45
19:507,2 °C 49 % 1026,0 hPa 0,0 mm 0,0 mm nein 9,7 km/h 20,9 km/h 0,0 mm/h O 0,000 klux 0,0 W/qm 0,0 nein 9,48 µg/m³ 7,36 µg/m³ 19:50
19:557,2 °C 49 % 1026,1 hPa 0,0 mm 0,0 mm nein 9,7 km/h 17,7 km/h 0,0 mm/h O 0,000 klux 0,0 W/qm 0,0 nein 8,83 µg/m³ 6,44 µg/m³ 19:55
UhrzeitTemperaturFeuchteLuftdruckNiederschlagEvapotranspirationNiederschlag?WindWindböenRegenrateWindrichtungHelligkeitSolarstrahlungUV-IndexSonne?Feinstaub 10µmFeinstaub 2,5µmUhrzeit
20:007,2 °C 49 % 1026,1 hPa 0,0 mm 0,1 mm nein 8,0 km/h 17,7 km/h 0,0 mm/h O 0,000 klux 0,0 W/qm 0,0 nein 8,03 µg/m³ 6,29 µg/m³ 20:00
20:057,2 °C 50 % 1026,1 hPa 0,0 mm 0,0 mm nein 8,0 km/h 22,5 km/h 0,0 mm/h O 0,000 klux 0,0 W/qm 0,0 nein 9,57 µg/m³ 6,49 µg/m³ 20:05
20:107,2 °C 50 % 1026,2 hPa 0,0 mm 0,0 mm nein 6,4 km/h 14,5 km/h 0,0 mm/h O 0,000 klux 0,0 W/qm 0,0 nein 10,76 µg/m³ 6,58 µg/m³ 20:10
20:156,7 °C 51 % 1026,3 hPa 0,0 mm 0,0 mm nein 8,0 km/h 19,3 km/h 0,0 mm/h O 0,000 klux 0,0 W/qm 0,0 nein 9,45 µg/m³ 7,33 µg/m³ 20:15
20:206,7 °C 51 % 1026,2 hPa 0,0 mm 0,0 mm nein 6,4 km/h 14,5 km/h 0,0 mm/h O 0,000 klux 0,0 W/qm 0,0 nein 10,18 µg/m³ 7,83 µg/m³ 20:20
20:256,7 °C 52 % 1026,2 hPa 0,0 mm 0,0 mm nein 6,4 km/h 14,5 km/h 0,0 mm/h O 0,000 klux 0,0 W/qm 0,0 nein 10,96 µg/m³ 6,49 µg/m³ 20:25
20:306,7 °C 52 % 1026,2 hPa 0,0 mm 0,0 mm nein 6,4 km/h 14,5 km/h 0,0 mm/h O 0,000 klux 0,0 W/qm 0,0 nein 12,12 µg/m³ 7,63 µg/m³ 20:30
20:356,7 °C 52 % 1026,2 hPa 0,0 mm 0,0 mm nein 8,0 km/h 24,1 km/h 0,0 mm/h OSO 0,000 klux 0,0 W/qm 0,0 nein 11,42 µg/m³ 8,24 µg/m³ 20:35
20:406,1 °C 52 % 1026,3 hPa 0,0 mm 0,0 mm nein 6,4 km/h 20,9 km/h 0,0 mm/h O 0,000 klux 0,0 W/qm 0,0 nein 11,46 µg/m³ 8,06 µg/m³ 20:40
20:456,1 °C 53 % 1026,3 hPa 0,0 mm 0,0 mm nein 8,0 km/h 20,9 km/h 0,0 mm/h ONO 0,000 klux 0,0 W/qm 0,0 nein 10,81 µg/m³ 8,18 µg/m³ 20:45
20:506,1 °C 53 % 1026,2 hPa 0,0 mm 0,0 mm nein 8,0 km/h 17,7 km/h 0,0 mm/h O 0,000 klux 0,0 W/qm 0,0 nein 9,77 µg/m³ 8,00 µg/m³ 20:50
20:556,1 °C 54 % 1026,2 hPa 0,0 mm 0,0 mm nein 8,0 km/h 16,1 km/h 0,0 mm/h O 0,000 klux 0,0 W/qm 0,0 nein 11,91 µg/m³ 8,20 µg/m³ 20:55
21:006,1 °C 54 % 1026,2 hPa 0,0 mm 0,1 mm nein 8,0 km/h 14,5 km/h 0,0 mm/h O 0,000 klux 0,0 W/qm 0,0 nein 12,28 µg/m³ 7,86 µg/m³ 21:00
21:056,1 °C 55 % 1026,1 hPa 0,0 mm 0,0 mm nein 8,0 km/h 19,3 km/h 0,0 mm/h O 0,000 klux 0,0 W/qm 0,0 nein 10,96 µg/m³ 8,05 µg/m³ 21:05
21:105,6 °C 55 % 1026,2 hPa 0,0 mm 0,0 mm nein 8,0 km/h 17,7 km/h 0,0 mm/h O 0,000 klux 0,0 W/qm 0,0 nein 14,96 µg/m³ 8,59 µg/m³ 21:10
21:155,6 °C 56 % 1026,2 hPa 0,0 mm 0,0 mm nein 6,4 km/h 16,1 km/h 0,0 mm/h O 0,000 klux 0,0 W/qm 0,0 nein 13,58 µg/m³ 9,08 µg/m³ 21:15
21:205,6 °C 56 % 1026,2 hPa 0,0 mm 0,0 mm nein 6,4 km/h 14,5 km/h 0,0 mm/h O 0,000 klux 0,0 W/qm 0,0 nein 12,42 µg/m³ 9,74 µg/m³ 21:20
21:255,6 °C 56 % 1026,2 hPa 0,0 mm 0,0 mm nein 6,4 km/h 19,3 km/h 0,0 mm/h ONO 0,000 klux 0,0 W/qm 0,0 nein 13,98 µg/m³ 8,80 µg/m³ 21:25
21:305,6 °C 56 % 1026,2 hPa 0,0 mm 0,0 mm nein 6,4 km/h 16,1 km/h 0,0 mm/h O 0,000 klux 0,0 W/qm 0,0 nein 13,58 µg/m³ 9,28 µg/m³ 21:30
21:355,6 °C 57 % 1026,2 hPa 0,0 mm 0,0 mm nein 8,0 km/h 20,9 km/h 0,0 mm/h O 0,000 klux 0,0 W/qm 0,0 nein 13,18 µg/m³ 9,67 µg/m³ 21:35
21:405,6 °C 57 % 1026,2 hPa 0,0 mm 0,0 mm nein 8,0 km/h 16,1 km/h 0,0 mm/h O 0,000 klux 0,0 W/qm 0,0 nein 13,21 µg/m³ 9,76 µg/m³ 21:40
21:455,0 °C 58 % 1026,3 hPa 0,0 mm 0,0 mm nein 8,0 km/h 17,7 km/h 0,0 mm/h O 0,000 klux 0,0 W/qm 0,0 nein 14,33 µg/m³ 10,19 µg/m³ 21:45
21:505,0 °C 58 % 1026,3 hPa 0,0 mm 0,0 mm nein 6,4 km/h 11,3 km/h 0,0 mm/h OSO 0,000 klux 0,0 W/qm 0,0 nein 14,16 µg/m³ 8,91 µg/m³ 21:50
21:555,0 °C 58 % 1026,3 hPa 0,0 mm 0,0 mm nein 4,8 km/h 9,7 km/h 0,0 mm/h O 0,000 klux 0,0 W/qm 0,0 nein 12,94 µg/m³ 9,86 µg/m³ 21:55
UhrzeitTemperaturFeuchteLuftdruckNiederschlagEvapotranspirationNiederschlag?WindWindböenRegenrateWindrichtungHelligkeitSolarstrahlungUV-IndexSonne?Feinstaub 10µmFeinstaub 2,5µmUhrzeit
22:005,0 °C 58 % 1026,3 hPa 0,0 mm 0,1 mm nein 4,8 km/h 8,0 km/h 0,0 mm/h OSO 0,000 klux 0,0 W/qm 0,0 nein 13,00 µg/m³ 9,16 µg/m³ 22:00
22:055,0 °C 58 % 1026,2 hPa 0,0 mm 0,0 mm nein 4,8 km/h 9,7 km/h 0,0 mm/h OSO 0,000 klux 0,0 W/qm 0,0 nein 13,41 µg/m³ 9,41 µg/m³ 22:05
22:105,0 °C 59 % 1026,2 hPa 0,0 mm 0,0 mm nein 4,8 km/h 9,7 km/h 0,0 mm/h OSO 0,000 klux 0,0 W/qm 0,0 nein 12,84 µg/m³ 9,49 µg/m³ 22:10
22:155,0 °C 59 % 1026,1 hPa 0,0 mm 0,0 mm nein 4,8 km/h 9,7 km/h 0,0 mm/h OSO 0,000 klux 0,0 W/qm 0,0 nein 13,92 µg/m³ 10,42 µg/m³ 22:15
22:204,4 °C 59 % 1026,1 hPa 0,0 mm 0,0 mm nein 4,8 km/h 12,9 km/h 0,0 mm/h O 0,000 klux 0,0 W/qm 0,0 nein 14,13 µg/m³ 10,37 µg/m³ 22:20
22:254,4 °C 59 % 1026,2 hPa 0,0 mm 0,0 mm nein 4,8 km/h 9,7 km/h 0,0 mm/h O 0,000 klux 0,0 W/qm 0,0 nein 15,02 µg/m³ 9,69 µg/m³ 22:25
22:304,4 °C 60 % 1026,1 hPa 0,0 mm 0,0 mm nein 4,8 km/h 11,3 km/h 0,0 mm/h OSO 0,000 klux 0,0 W/qm 0,0 nein 14,56 µg/m³ 9,96 µg/m³ 22:30
22:354,4 °C 60 % 1026,1 hPa 0,0 mm 0,0 mm nein 3,2 km/h 6,4 km/h 0,0 mm/h OSO 0,000 klux 0,0 W/qm 0,0 nein 15,27 µg/m³ 10,86 µg/m³ 22:35
22:404,4 °C 60 % 1026,1 hPa 0,0 mm 0,0 mm nein 3,2 km/h 8,0 km/h 0,0 mm/h O 0,000 klux 0,0 W/qm 0,0 nein 15,83 µg/m³ 11,09 µg/m³ 22:40
22:453,9 °C 61 % 1026,2 hPa 0,0 mm 0,0 mm nein 4,8 km/h 11,3 km/h 0,0 mm/h O 0,000 klux 0,0 W/qm 0,0 nein 13,65 µg/m³ 10,17 µg/m³ 22:45
22:503,9 °C 61 % 1026,2 hPa 0,0 mm 0,0 mm nein 4,8 km/h 8,0 km/h 0,0 mm/h O 0,000 klux 0,0 W/qm 0,0 nein 13,97 µg/m³ 9,58 µg/m³ 22:50
22:553,9 °C 61 % 1026,1 hPa 0,0 mm 0,0 mm nein 6,4 km/h 12,9 km/h 0,0 mm/h O 0,000 klux 0,0 W/qm 0,0 nein 14,05 µg/m³ 10,12 µg/m³ 22:55
23:003,9 °C 62 % 1026,1 hPa 0,0 mm 0,0 mm nein 4,8 km/h 12,9 km/h 0,0 mm/h OSO 0,000 klux 0,0 W/qm 0,0 nein 14,47 µg/m³ 10,88 µg/m³ 23:00
23:053,9 °C 62 % 1026,1 hPa 0,0 mm 0,0 mm nein 4,8 km/h 8,0 km/h 0,0 mm/h OSO 0,000 klux 0,0 W/qm 0,0 nein 14,23 µg/m³ 9,60 µg/m³ 23:05
23:103,9 °C 62 % 1026,2 hPa 0,0 mm 0,0 mm nein 3,2 km/h 8,0 km/h 0,0 mm/h OSO 0,000 klux 0,0 W/qm 0,0 nein 15,14 µg/m³ 9,90 µg/m³ 23:10
23:153,3 °C 63 % 1026,2 hPa 0,0 mm 0,0 mm nein 3,2 km/h 8,0 km/h 0,0 mm/h OSO 0,000 klux 0,0 W/qm 0,0 nein 13,88 µg/m³ 10,17 µg/m³ 23:15
23:203,3 °C 63 % 1026,3 hPa 0,0 mm 0,0 mm nein 3,2 km/h 8,0 km/h 0,0 mm/h OSO 0,000 klux 0,0 W/qm 0,0 nein 14,25 µg/m³ 9,86 µg/m³ 23:20
23:253,3 °C 63 % 1026,3 hPa 0,0 mm 0,0 mm nein 3,2 km/h 6,4 km/h 0,0 mm/h OSO 0,000 klux 0,0 W/qm 0,0 nein 16,64 µg/m³ 11,17 µg/m³ 23:25
23:303,3 °C 63 % 1026,3 hPa 0,0 mm 0,0 mm nein 3,2 km/h 4,8 km/h 0,0 mm/h OSO 0,000 klux 0,0 W/qm 0,0 nein 17,19 µg/m³ 11,38 µg/m³ 23:30
23:353,3 °C 64 % 1026,3 hPa 0,0 mm 0,0 mm nein 3,2 km/h 6,4 km/h 0,0 mm/h OSO 0,000 klux 0,0 W/qm 0,0 nein 17,91 µg/m³ 11,52 µg/m³ 23:35
23:402,8 °C 64 % 1026,4 hPa 0,0 mm 0,0 mm nein 3,2 km/h 4,8 km/h 0,0 mm/h OSO 0,000 klux 0,0 W/qm 0,0 nein 16,45 µg/m³ 11,13 µg/m³ 23:40
23:452,8 °C 64 % 1026,3 hPa 0,0 mm 0,0 mm nein 3,2 km/h 6,4 km/h 0,0 mm/h OSO 0,000 klux 0,0 W/qm 0,0 nein 14,96 µg/m³ 10,42 µg/m³ 23:45
23:502,8 °C 65 % 1026,3 hPa 0,0 mm 0,0 mm nein 4,8 km/h 14,5 km/h 0,0 mm/h OSO 0,000 klux 0,0 W/qm 0,0 nein 17,31 µg/m³ 11,35 µg/m³ 23:50
23:552,2 °C 66 % 1026,3 hPa 0,0 mm 0,0 mm nein 8,0 km/h 19,3 km/h 0,0 mm/h OSO 0,000 klux 0,0 W/qm 0,0 nein 17,72 µg/m³ 11,41 µg/m³ 23:55
Gesamt: 4,3 °C 57 % 1027,4 hPa 0,0 mm 3,0 mm nein 5,0 km/h 10,5 km/h 0,0 mm/h 0 0,000 klux 187,2 W/qm 0,4 nein 10,00 µg/m³ 7,50 µg/m³

Insgesamt 288 Zeilen mal 16 Spalten = 4608 Werte werden angezeigt.

www.wetter-rosstal.de   •   www.wetter-franken.de   •   www.lightningmaps.org   •   Start   •   Kontakt / Datenschutz   •   PC-Kümmerer